Location: Asheville, NC
(35.6000°N, 82.5500°W)
Time: 11:01:12
(UTC-04:00)

Vanguard 1 - Pass Details

Date: 14 February 2018
Orbit: 650 x 3833 km, 34.3° (Epoch: 24 May)

Event Time Altitude Azimuth Distance (km) Brightness Sun altitude
Rises 14:10:48 0° 210° (SSW) 6,666 15.3 37.4°
Reaches altitude 10° 14:17:07 10° 198° (SSW) 5,034 15.0 36.8°
Maximum altitude 14:26:15 22° 154° (SSE) 3,124 13.3 35.9°
Drops below altitude 10° 14:32:25 10° 107° (ESE) 3,263 12.7 35.2°
Sets 14:35:24 0° 91° (E) 3,879 12.9 34.9°
